EWG15G LPPS-LPMA

Flight info

Callsign EWG15G
Flight time 0h 14m
Altitude 7000
Route PILIM DCT MA530 DCT MA528 DCT MA526 DCT MA522 DCT MA520 DCT GELO DCT ROSRO DCT MA502
Aircraft A20N/M-SDE2E3FGHIRWXY/LB1

Departure

Time 2026-05-06 12:16
Airport Porto Santo Airport (LPPS)

Arrival

Time 2026-05-06 12:30
Airport Cristiano Ronaldo International Airport (LPMA)
Time Latitude Longitude Altitude Speed Heading
2026-05-06 12:00 33.07063 -16.34630 290 ft 0 kts 109°
2026-05-06 12:06 33.07065 -16.34635 290 ft 2 kts 105°
2026-05-06 12:06 33.07066 -16.34638 292 ft 0 kts 101°
2026-05-06 12:06 33.07067 -16.34645 291 ft 2 kts 99°
2026-05-06 12:07 33.07068 -16.34664 291 ft 2 kts 79°
2026-05-06 12:07 33.07063 -16.34683 295 ft 2 kts 76°
2026-05-06 12:07 33.07062 -16.34703 293 ft 2 kts 115°
2026-05-06 12:07 33.07074 -16.34716 294 ft 2 kts 164°
2026-05-06 12:08 33.07083 -16.34719 295 ft 1 kts 173°
2026-05-06 12:08 33.07087 -16.34719 295 ft 0 kts 176°
2026-05-06 12:10 33.07077 -16.34719 294 ft 6 kts 176°
2026-05-06 12:10 33.07008 -16.34717 288 ft 12 kts 187°
2026-05-06 12:10 33.06971 -16.34750 286 ft 6 kts 250°
2026-05-06 12:11 33.06965 -16.34822 286 ft 10 kts 266°
2026-05-06 12:11 33.06963 -16.34856 286 ft 0 kts 266°
2026-05-06 12:11 33.06962 -16.34874 286 ft 4 kts 267°
2026-05-06 12:12 33.06960 -16.34927 287 ft 8 kts 268°
2026-05-06 12:12 33.06921 -16.34978 286 ft 11 kts 195°
2026-05-06 12:12 33.06817 -16.34972 281 ft 23 kts 179°
2026-05-06 12:12 33.06614 -16.34965 271 ft 34 kts 178°
2026-05-06 12:13 33.06360 -16.34957 261 ft 39 kts 178°
2026-05-06 12:13 33.06187 -16.34948 255 ft 15 kts 177°
2026-05-06 12:13 33.06109 -16.34888 253 ft 16 kts 136°
2026-05-06 12:13 33.06031 -16.34836 251 ft 10 kts 175°
2026-05-06 12:14 33.06009 -16.34850 250 ft 0 kts 242°
2026-05-06 12:14 33.06005 -16.34859 250 ft 4 kts 243°
2026-05-06 12:14 33.06003 -16.34916 250 ft 9 kts 281°
2026-05-06 12:14 33.06040 -16.34942 251 ft 6 kts 348°
2026-05-06 12:15 33.06062 -16.34945 252 ft 3 kts 356°
2026-05-06 12:15 33.06117 -16.34947 254 ft 25 kts 358°
2026-05-06 12:15 33.06536 -16.34962 269 ft 92 kts 358°
2026-05-06 12:15 33.07354 -16.34993 312 ft 140 kts 359°
2026-05-06 12:16 33.08305 -16.35026 975 ft 132 kts
2026-05-06 12:16 33.09199 -16.35132 1750 ft 130 kts 346°
2026-05-06 12:16 33.10006 -16.35709 2283 ft 147 kts 321°
2026-05-06 12:16 33.10615 -16.36846 2547 ft 183 kts 291°
2026-05-06 12:17 33.10554 -16.38455 2999 ft 211 kts 253°
2026-05-06 12:17 33.09646 -16.39860 3721 ft 223 kts 217°
2026-05-06 12:17 33.08167 -16.40658 4355 ft 245 kts 200°
2026-05-06 12:17 33.06493 -16.41409 5060 ft 267 kts 204°
2026-05-06 12:18 33.04796 -16.42355 5992 ft 274 kts 210°
2026-05-06 12:18 33.03134 -16.43447 6661 ft 272 kts 213°
2026-05-06 12:18 33.01498 -16.44631 6963 ft 277 kts 215°
2026-05-06 12:18 32.99868 -16.45860 7104 ft 278 kts 216°
2026-05-06 12:19 32.98233 -16.47107 7155 ft 279 kts 215°
2026-05-06 12:19 32.96602 -16.48347 7156 ft 278 kts 216°
2026-05-06 12:19 32.94966 -16.49585 7139 ft 278 kts 215°
2026-05-06 12:19 32.93345 -16.50810 6953 ft 276 kts 217°
2026-05-06 12:20 32.91849 -16.52218 6622 ft 272 kts 225°
2026-05-06 12:20 32.90453 -16.53736 6193 ft 272 kts 225°
2026-05-06 12:20 32.89051 -16.55242 5888 ft 267 kts 225°
2026-05-06 12:20 32.87701 -16.56681 5753 ft 255 kts 225°
2026-05-06 12:21 32.86389 -16.58079 5451 ft 252 kts 225°
2026-05-06 12:21 32.85076 -16.59483 5035 ft 255 kts 224°
2026-05-06 12:21 32.83755 -16.60886 4680 ft 255 kts 222°
2026-05-06 12:21 32.82268 -16.62049 4331 ft 257 kts 208°
2026-05-06 12:22 32.80605 -16.62832 4060 ft 255 kts 201°
2026-05-06 12:22 32.78993 -16.63537 3920 ft 247 kts 201°
2026-05-06 12:22 32.77392 -16.64255 3662 ft 245 kts 201°
2026-05-06 12:22 32.75800 -16.64975 3453 ft 241 kts 201°
2026-05-06 12:23 32.74259 -16.65670 3336 ft 230 kts 201°
2026-05-06 12:23 32.72791 -16.66333 3078 ft 222 kts 201°
2026-05-06 12:23 32.71389 -16.66967 2903 ft 210 kts 201°
2026-05-06 12:23 32.70019 -16.67584 2537 ft 210 kts 201°
2026-05-06 12:24 32.68655 -16.68198 2264 ft 207 kts 201°
2026-05-06 12:24 32.67344 -16.68787 2252 ft 193 kts 201°
2026-05-06 12:24 32.66151 -16.69323 2251 ft 175 kts 201°
2026-05-06 12:24 32.65072 -16.69808 2181 ft 163 kts 201°
2026-05-06 12:25 32.64012 -16.70286 2016 ft 163 kts 202°
2026-05-06 12:25 32.62939 -16.70965 1996 ft 181 kts 217°
2026-05-06 12:25 32.62015 -16.71968 1997 ft 179 kts 233°
2026-05-06 12:25 32.61357 -16.73180 2000 ft 173 kts 248°
2026-05-06 12:26 32.60966 -16.74529 1985 ft 175 kts 262°
2026-05-06 12:26 32.60847 -16.75967 1920 ft 173 kts 274°
2026-05-06 12:26 32.60988 -16.77330 1861 ft 156 kts 290°
2026-05-06 12:26 32.61356 -16.78390 1938 ft 129 kts 307°
2026-05-06 12:27 32.61904 -16.79214 1958 ft 128 kts 318°
2026-05-06 12:27 32.62555 -16.79889 1851 ft 121 kts 331°
2026-05-06 12:27 32.63309 -16.80293 1640 ft 117 kts 348°
2026-05-06 12:27 32.64109 -16.80368 1434 ft 116 kts
2026-05-06 12:28 32.64935 -16.80345 1261 ft 118 kts 359°
2026-05-06 12:28 32.65758 -16.80346 990 ft 119 kts 359°
2026-05-06 12:28 32.66582 -16.80348 722 ft 118 kts
2026-05-06 12:28 32.67344 -16.80167 654 ft 114 kts 27°
2026-05-06 12:29 32.67962 -16.79545 455 ft 114 kts 40°
2026-05-06 12:29 32.68520 -16.78874 360 ft 114 kts 38°
2026-05-06 12:29 32.69094 -16.78243 214 ft 109 kts 39°
2026-05-06 12:29 32.69562 -16.77713 198 ft 67 kts 44°
2026-05-06 12:30 32.69788 -16.77452 209 ft 37 kts 45°
2026-05-06 12:30 32.69932 -16.77278 214 ft 14 kts 46°
2026-05-06 12:30 32.69958 -16.77207 204 ft 1 kts 87°
2026-05-06 12:30 32.69955 -16.77198 204 ft 6 kts 110°
2026-05-06 12:31 32.69897 -16.77174 204 ft 13 kts 179°
2026-05-06 12:31 32.69800 -16.77225 202 ft 20 kts 225°
2026-05-06 12:31 32.69692 -16.77360 197 ft 21 kts 227°
2026-05-06 12:31 32.69578 -16.77500 201 ft 28 kts 226°
2026-05-06 12:32 32.69543 -16.77544 191 ft 5 kts 226°
2026-05-06 12:32 32.69506 -16.77556 191 ft 6 kts 152°
2026-05-06 12:32 32.69475 -16.77527 198 ft 0 kts 140°
2026-05-06 12:32 32.69469 -16.77520 195 ft 0 kts 138°